STARLINK-5156, 53973

Orbit data source: Space-Track

STARLINK-5156, 53973 is a payload satellite owned by SpaceX/Seattle (US) in LEO that was launched on Wed, 05 Oct 2022 UTC via an FALCON 9 launch vehicle from the Air Force Western Test Range (AFWTR). Payload-class satellites include a variety of spacecraft equipped with specific instruments for various scientific and technological missions. These include communications satellites like Starlink; space stations such as the ISS; scientific satellites like the Hubble; Earth observation satellites from companies like Planet Labs, Umbra, and HawkEye 360; GPS; miniature CubeSats for education and research; and military/defense satellites.

Loading next visibility...
Identifier
53973, 2022-125K
Orbit
LEO
Country
Flag of USUS
Related business
Manufacturer
SpaceX/Seattle
Mission
Operational Commercial Communications
Bus & Motor
STARLINK, Unknown motor
Mass
305 kg wet, ~290 kg dry
Launch date (UTC)
2022-10-05 (4 years ago)
Launch vehicle
FALCON 9
Launch site
Air Force Western Test Range (AFWTR)
Object type
Payload
Rocket body
Debris
Shape & HBR
Box + 1 Pan, 10.1 m
Radar Cross Section
13.562 m², Large (>1 m²)

Expand to show TLE details & history
Last TLE update: 3 days ago

TLE from 3 days ago
0 STARLINK-5156
1 53973U 22125K   26170.89688321 -.00000101  00000-0  11748-4 0  9998
2 53973  53.1602 125.0636 0001362  89.1382 270.9765 15.08831568204751
Epoch: 2026-06-19T21:31Z
TLE epoch observation values (Epoch: 2026-06-19T21:31:30.709Z)
Latitude
-0.00005°
Longitude
-105.93367°
Altitude
540.645 km
Speed
7.593 km/s
True Right ascension
08h 20m 15s
True Declination
0° 00' 00"
Sunlit
Object was in daylight at epoch
Visualization orbit readout
Latitude
Unknown
Longitude
Unknown
Altitude
Unknown
Speed
Unknown
Apparent Right ascension
Unknown
Apparent Declination
Unknown
Sunlit
N/A
Visualization observer readout
Local Sidereal Time
21:31:17
Azimuth
Unknown
Elevation
Unknown
Doppler factor
Unknown
Orbital elements
Apogee altitude
540.966 km
Perigee altitude
539.081 km
Semi-major axis
6,918.16 km
Eccentricity
0.00014
Inclination
53.1602°
RAAN
125.0636°
Arg. of periapsis
89.1382°
True anomaly
270.96089°
Mean anomaly
270.9765°
Eccentric anomaly
270.9687°
Mean motion
3.77187 °/min
Orbital period
95.44 mins
BSTAR
0.000011748
Loading maneuver chart data...
Computing Atmospheric mass density...
Loading historical data...
Loading historical data...
Loading historical data...
Loading historical data...
Loading historical data...
Loading historical data...
Loading historical data...

Documentation

Showing up to 5 results
|